Time,TemperatureF,DewpointF,PressureIn,WindDirection,WindDirectionDegrees,WindSpeedMPH,WindSpeedGustMPH,Humidity,HourlyPrecipIn,Conditions,Clouds,dailyrainin,SoftwareType,DateUTC
2013-05-26 00:01:00,58.3,39.2,30.20,North,360,2.0,5.0,49,0.00,,---,0.00,VWS V14.01,2013-05-26 04:01:00,
2013-05-26 00:03:00,58.5,41.5,30.20,North,360,0.0,0.0,53,0.00,,---,0.00,VWS V14.01,2013-05-26 04:03:00,
2013-05-26 00:09:00,58.3,40.3,30.20,North,360,2.0,3.0,51,0.00,,---,0.00,VWS V14.01,2013-05-26 04:09:00,
2013-05-26 00:14:00,58.1,40.6,30.20,North,360,1.0,3.0,52,0.00,,---,0.00,VWS V14.01,2013-05-26 04:14:00,
2013-05-26 00:19:00,58.3,39.2,30.20,North,360,2.0,4.0,49,0.00,,---,0.00,VWS V14.01,2013-05-26 04:19:00,
2013-05-26 00:24:00,58.4,38.8,30.20,North,360,2.0,4.0,48,0.00,,---,0.00,VWS V14.01,2013-05-26 04:24:00,
2013-05-26 00:29:00,58.2,39.2,30.20,North,360,0.0,4.0,49,0.00,,---,0.00,VWS V14.01,2013-05-26 04:29:00,
2013-05-26 00:34:00,58.2,38.1,30.20,North,360,0.0,4.0,47,0.00,,---,0.00,VWS V14.01,2013-05-26 04:34:00,
2013-05-26 00:39:00,58.2,38.6,30.20,North,360,0.0,4.0,48,0.00,,---,0.00,VWS V14.01,2013-05-26 04:39:00,
2013-05-26 00:44:00,58.3,38.7,30.20,North,360,3.0,4.0,48,0.00,,---,0.00,VWS V14.01,2013-05-26 04:44:00,
2013-05-26 00:49:00,58.3,38.7,30.21,North,360,0.0,4.0,48,0.00,,---,0.00,VWS V14.01,2013-05-26 04:49:00,
2013-05-26 00:54:00,58.3,39.8,30.21,North,360,2.0,4.0,50,0.00,,---,0.00,VWS V14.01,2013-05-26 04:54:00,
2013-05-26 00:59:00,58.1,39.6,30.21,North,360,2.0,4.0,50,0.00,,---,0.00,VWS V14.01,2013-05-26 04:59:00,
2013-05-26 01:04:00,57.7,39.7,30.21,North,360,1.0,4.0,51,0.00,,---,0.00,VWS V14.01,2013-05-26 05:04:00,
2013-05-26 01:09:00,57.5,40.0,30.21,North,360,6.0,7.0,52,0.00,,---,0.00,VWS V14.01,2013-05-26 05:09:00,
2013-05-26 01:14:00,57.6,39.6,30.21,North,360,5.0,8.0,51,0.00,,---,0.00,VWS V14.01,2013-05-26 05:14:00,
2013-05-26 01:20:00,57.7,39.2,30.21,North,360,5.0,8.0,50,0.00,,---,0.00,VWS V14.01,2013-05-26 05:20:00,
2013-05-26 01:25:00,57.8,38.8,30.21,North,360,3.0,8.0,49,0.00,,---,0.00,VWS V14.01,2013-05-26 05:25:00,
2013-05-26 01:30:00,57.8,38.8,30.21,North,360,2.0,8.0,49,0.00,,---,0.00,VWS V14.01,2013-05-26 05:30:00,
2013-05-26 01:35:00,57.8,38.8,30.21,North,360,5.0,8.0,49,0.00,,---,0.00,VWS V14.01,2013-05-26 05:35:00,
2013-05-26 01:40:00,57.9,38.9,30.21,North,360,5.0,8.0,49,0.00,,---,0.00,VWS V14.01,2013-05-26 05:40:00,
2013-05-26 01:45:00,57.9,39.4,30.21,North,360,2.0,9.0,50,0.00,,---,0.00,VWS V14.01,2013-05-26 05:45:00,
2013-05-26 01:50:00,57.8,39.3,30.21,North,360,2.0,9.0,50,0.00,,---,0.00,VWS V14.01,2013-05-26 05:50:00,
2013-05-26 01:55:00,57.6,39.1,30.21,North,360,2.0,9.0,50,0.00,,---,0.00,VWS V14.01,2013-05-26 05:55:00,
2013-05-26 02:00:00,57.5,39.5,30.21,North,360,2.0,9.0,51,0.00,,---,0.00,VWS V14.01,2013-05-26 06:00:00,
2013-05-26 02:05:00,57.3,39.3,30.21,North,360,2.0,5.0,51,0.00,,---,0.00,VWS V14.01,2013-05-26 06:05:00,
2013-05-26 02:10:00,57.3,39.3,30.21,North,360,4.0,5.0,51,0.00,,---,0.00,VWS V14.01,2013-05-26 06:10:00,
2013-05-26 02:15:00,57.3,39.3,30.21,North,360,2.0,6.0,51,0.00,,---,0.00,VWS V14.01,2013-05-26 06:15:00,
2013-05-26 02:20:00,57.4,39.4,30.21,North,360,0.0,6.0,51,0.00,,---,0.00,VWS V14.01,2013-05-26 06:20:00,
2013-05-26 02:26:00,57.4,39.4,30.21,North,360,6.0,6.0,51,0.00,,---,0.00,VWS V14.01,2013-05-26 06:26:00,
2013-05-26 02:31:00,57.3,39.3,30.21,North,360,2.0,6.0,51,0.00,,---,0.00,VWS V14.01,2013-05-26 06:31:00,
2013-05-26 02:36:00,57.2,39.8,30.21,North,360,1.0,7.0,52,0.00,,---,0.00,VWS V14.01,2013-05-26 06:36:00,
2013-05-26 02:41:00,57.1,39.7,30.21,North,360,3.0,7.0,52,0.00,,---,0.00,VWS V14.01,2013-05-26 06:41:00,
2013-05-26 02:46:00,56.9,40.0,30.21,North,360,4.0,7.0,53,0.00,,---,0.00,VWS V14.01,2013-05-26 06:46:00,
2013-05-26 02:51:00,56.8,40.3,30.20,North,360,2.0,7.0,54,0.00,,---,0.00,VWS V14.01,2013-05-26 06:51:00,
2013-05-26 02:56:00,56.7,40.3,30.20,North,360,2.0,7.0,54,0.00,,---,0.00,VWS V14.01,2013-05-26 06:56:00,
2013-05-26 03:01:00,56.6,40.2,30.20,North,360,2.0,7.0,54,0.00,,---,0.00,VWS V14.01,2013-05-26 07:01:00,
2013-05-26 03:06:00,56.4,40.0,30.20,North,360,3.0,5.0,54,0.00,,---,0.00,VWS V14.01,2013-05-26 07:06:00,
2013-05-26 03:11:00,56.4,39.5,30.20,North,360,3.0,7.0,53,0.00,,---,0.00,VWS V14.01,2013-05-26 07:11:00,
2013-05-26 03:16:00,56.3,39.9,30.20,North,360,3.0,7.0,54,0.00,,---,0.00,VWS V14.01,2013-05-26 07:16:00,
2013-05-26 03:21:00,56.3,40.4,30.20,North,360,3.0,7.0,55,0.00,,---,0.00,VWS V14.01,2013-05-26 07:21:00,
2013-05-26 03:27:00,56.1,40.2,30.20,North,360,4.0,7.0,55,0.00,,---,0.00,VWS V14.01,2013-05-26 07:27:00,
2013-05-26 03:32:00,56.0,40.1,30.20,North,360,1.0,7.0,55,0.00,,---,0.00,VWS V14.01,2013-05-26 07:32:00,
2013-05-26 03:37:00,56.0,40.5,30.20,North,360,3.0,7.0,56,0.00,,---,0.00,VWS V14.01,2013-05-26 07:37:00,
2013-05-26 03:42:00,55.9,40.9,30.20,North,360,3.0,7.0,57,0.00,,---,0.00,VWS V14.01,2013-05-26 07:42:00,
2013-05-26 03:47:00,55.7,40.7,30.20,North,360,1.0,7.0,57,0.00,,---,0.00,VWS V14.01,2013-05-26 07:47:00,
2013-05-26 03:52:00,55.5,41.0,30.20,North,360,2.0,7.0,58,0.00,,---,0.00,VWS V14.01,2013-05-26 07:52:00,
2013-05-26 03:57:00,55.4,40.9,30.20,North,360,1.0,7.0,58,0.00,,---,0.00,VWS V14.01,2013-05-26 07:57:00,
2013-05-26 04:02:00,55.4,40.9,30.20,North,360,3.0,7.0,58,0.00,,---,0.00,VWS V14.01,2013-05-26 08:02:00,
2013-05-26 04:07:00,55.3,41.2,30.20,North,360,2.0,5.0,59,0.00,,---,0.00,VWS V14.01,2013-05-26 08:07:00,
2013-05-26 04:12:00,55.3,41.2,30.21,North,360,0.0,5.0,59,0.00,,---,0.00,VWS V14.01,2013-05-26 08:12:00,
2013-05-26 04:17:00,55.2,41.1,30.21,North,360,0.0,5.0,59,0.00,,---,0.00,VWS V14.01,2013-05-26 08:17:00,
2013-05-26 04:22:00,55.2,41.1,30.21,North,360,0.0,5.0,59,0.00,,---,0.00,VWS V14.01,2013-05-26 08:22:00,
2013-05-26 04:27:00,55.2,41.1,30.21,North,360,0.0,5.0,59,0.00,,---,0.00,VWS V14.01,2013-05-26 08:27:00,
2013-05-26 04:33:00,55.2,41.1,30.21,North,360,0.0,5.0,59,0.00,,---,0.00,VWS V14.01,2013-05-26 08:33:00,
2013-05-26 04:38:00,55.1,41.0,30.21,North,360,0.0,5.0,59,0.00,,---,0.00,VWS V14.01,2013-05-26 08:38:00,
2013-05-26 04:43:00,55.1,41.5,30.21,North,360,0.0,5.0,60,0.00,,---,0.00,VWS V14.01,2013-05-26 08:43:00,
2013-05-26 04:48:00,55.0,41.8,30.21,North,360,0.0,5.0,61,0.00,,---,0.00,VWS V14.01,2013-05-26 08:48:00,
2013-05-26 04:53:00,55.0,41.8,30.20,North,360,0.0,5.0,61,0.00,,---,0.00,VWS V14.01,2013-05-26 08:53:00,
2013-05-26 04:58:00,54.9,41.7,30.21,North,360,0.0,5.0,61,0.00,,---,0.00,VWS V14.01,2013-05-26 08:58:00,
2013-05-26 05:03:00,54.8,41.6,30.21,North,360,0.0,0.0,61,0.00,,---,0.00,VWS V14.01,2013-05-26 09:03:00,
2013-05-26 05:08:00,54.8,42.0,30.22,North,360,1.0,1.0,62,0.00,,---,0.00,VWS V14.01,2013-05-26 09:08:00,
2013-05-26 05:13:00,54.8,41.6,30.22,North,360,2.0,3.0,61,0.00,,---,0.00,VWS V14.01,2013-05-26 09:13:00,
2013-05-26 05:18:00,54.9,41.7,30.22,North,360,1.0,5.0,61,0.00,,---,0.00,VWS V14.01,2013-05-26 09:18:00,
2013-05-26 05:23:00,55.0,41.8,30.23,North,360,3.0,5.0,61,0.00,,---,0.00,VWS V14.01,2013-05-26 09:23:00,
2013-05-26 05:28:00,55.1,42.3,30.22,North,360,1.0,5.0,62,0.00,,---,0.00,VWS V14.01,2013-05-26 09:28:00,
2013-05-26 05:33:00,55.1,41.9,30.22,North,360,2.0,5.0,61,0.00,,---,0.00,VWS V14.01,2013-05-26 09:33:00,
2013-05-26 05:39:00,55.0,41.8,30.22,North,360,0.0,5.0,61,0.00,,---,0.00,VWS V14.01,2013-05-26 09:39:00,
2013-05-26 05:44:00,54.9,42.6,30.22,North,360,2.0,5.0,63,0.00,,---,0.00,VWS V14.01,2013-05-26 09:44:00,
2013-05-26 05:49:00,54.6,42.3,30.22,North,360,0.0,5.0,63,0.00,,---,0.00,VWS V14.01,2013-05-26 09:49:00,
2013-05-26 05:54:00,54.4,42.5,30.23,North,360,0.0,5.0,64,0.00,,---,0.00,VWS V14.01,2013-05-26 09:54:00,
2013-05-26 05:59:00,54.5,42.2,30.23,North,360,0.0,5.0,63,0.00,,---,0.00,VWS V14.01,2013-05-26 09:59:00,
2013-05-26 06:04:00,54.6,42.3,30.23,North,360,0.0,0.0,63,0.00,,---,0.00,VWS V14.01,2013-05-26 10:04:00,
2013-05-26 06:09:00,54.5,42.2,30.24,North,360,0.0,0.0,63,0.00,,---,0.00,VWS V14.01,2013-05-26 10:09:00,
2013-05-26 06:14:00,54.4,42.5,30.24,North,360,0.0,0.0,64,0.00,,---,0.00,VWS V14.01,2013-05-26 10:14:00,
2013-05-26 06:19:00,54.2,42.7,30.24,North,360,0.0,0.0,65,0.00,,---,0.00,VWS V14.01,2013-05-26 10:19:00,
2013-05-26 06:24:00,54.1,43.4,30.24,North,360,0.0,0.0,67,0.00,,---,0.00,VWS V14.01,2013-05-26 10:24:00,
2013-05-26 06:29:00,53.8,43.5,30.23,North,360,0.0,0.0,68,0.00,,---,0.00,VWS V14.01,2013-05-26 10:29:00,
2013-05-26 06:34:00,53.7,43.4,30.24,North,360,3.0,4.0,68,0.00,,---,0.00,VWS V14.01,2013-05-26 10:34:00,
2013-05-26 06:39:00,53.7,43.0,30.24,North,360,1.0,4.0,67,0.00,,---,0.00,VWS V14.01,2013-05-26 10:39:00,
2013-05-26 06:44:00,53.7,43.0,30.24,North,360,2.0,4.0,67,0.00,,---,0.00,VWS V14.01,2013-05-26 10:44:00,
2013-05-26 06:49:00,53.9,43.2,30.25,North,360,1.0,4.0,67,0.00,,---,0.00,VWS V14.01,2013-05-26 10:49:00,
2013-05-26 06:54:00,54.1,43.4,30.24,North,360,2.0,4.0,67,0.00,,---,0.00,VWS V14.01,2013-05-26 10:54:00,
2013-05-26 07:00:00,54.4,43.3,30.25,North,360,1.0,5.0,66,0.00,,---,0.00,VWS V14.01,2013-05-26 11:00:00,
2013-05-26 07:05:00,54.7,43.2,30.25,North,360,2.0,3.0,65,0.00,,---,0.00,VWS V14.01,2013-05-26 11:05:00,
2013-05-26 07:10:00,54.9,43.4,30.25,North,360,0.0,3.0,65,0.00,,---,0.00,VWS V14.01,2013-05-26 11:10:00,
2013-05-26 07:15:00,55.2,44.0,30.25,North,360,0.0,3.0,66,0.00,,---,0.00,VWS V14.01,2013-05-26 11:15:00,
2013-05-26 07:20:00,55.4,43.8,30.25,North,360,0.0,3.0,65,0.00,,---,0.00,VWS V14.01,2013-05-26 11:20:00,
2013-05-26 07:25:00,55.7,44.1,30.25,North,360,0.0,3.0,65,0.00,,---,0.00,VWS V14.01,2013-05-26 11:25:00,
2013-05-26 07:30:00,55.8,45.0,30.25,North,360,0.0,3.0,67,0.00,,---,0.00,VWS V14.01,2013-05-26 11:30:00,
2013-05-26 07:35:00,55.7,43.7,30.25,North,360,0.0,3.0,64,0.00,,---,0.00,VWS V14.01,2013-05-26 11:35:00,
2013-05-26 07:40:00,55.8,43.8,30.25,North,360,0.0,3.0,64,0.00,,---,0.00,VWS V14.01,2013-05-26 11:40:00,
2013-05-26 07:45:00,55.9,45.1,30.25,North,360,0.0,3.0,67,0.00,,---,0.00,VWS V14.01,2013-05-26 11:45:00,
2013-05-26 07:50:00,55.8,45.8,30.25,North,360,0.0,3.0,69,0.00,,---,0.00,VWS V14.01,2013-05-26 11:50:00,
2013-05-26 07:55:00,55.8,46.2,30.25,North,360,0.0,3.0,70,0.00,,---,0.00,VWS V14.01,2013-05-26 11:55:00,
2013-05-26 08:00:00,55.8,46.2,30.25,North,360,0.0,3.0,70,0.00,,---,0.00,VWS V14.01,2013-05-26 12:00:00,
2013-05-26 08:05:00,55.7,46.1,30.26,North,360,0.0,0.0,70,0.00,,---,0.00,VWS V14.01,2013-05-26 12:05:00,
2013-05-26 08:10:00,55.6,45.6,30.26,North,360,0.0,0.0,69,0.00,,---,0.00,VWS V14.01,2013-05-26 12:10:00,
2013-05-26 08:15:00,55.7,46.1,30.26,North,360,0.0,0.0,70,0.00,,---,0.00,VWS V14.01,2013-05-26 12:15:00,
2013-05-26 08:20:00,56.0,46.0,30.26,North,360,0.0,0.0,69,0.00,,---,0.00,VWS V14.01,2013-05-26 12:20:00,
2013-05-26 08:25:00,56.2,46.2,30.26,North,360,0.0,0.0,69,0.00,,---,0.00,VWS V14.01,2013-05-26 12:25:00,
2013-05-26 08:30:00,56.4,46.8,30.26,North,360,0.0,0.0,70,0.00,,---,0.00,VWS V14.01,2013-05-26 12:30:00,
2013-05-26 08:35:00,56.4,47.9,30.27,North,360,0.0,0.0,73,0.00,,---,0.00,VWS V14.01,2013-05-26 12:35:00,
2013-05-26 08:40:00,56.4,48.2,30.26,North,360,1.0,3.0,74,0.00,,---,0.00,VWS V14.01,2013-05-26 12:40:00,
2013-05-26 08:45:00,56.3,48.5,30.26,North,360,0.0,3.0,75,0.00,,---,0.00,VWS V14.01,2013-05-26 12:45:00,
2013-05-26 08:50:00,56.2,47.7,30.27,North,360,0.0,3.0,73,0.00,,---,0.00,VWS V14.01,2013-05-26 12:50:00,
2013-05-26 08:55:00,56.3,47.4,30.26,North,360,0.0,3.0,72,0.00,,---,0.00,VWS V14.01,2013-05-26 12:55:00,
2013-05-26 09:00:00,56.5,46.5,30.27,North,360,0.0,3.0,69,0.00,,---,0.00,VWS V14.01,2013-05-26 13:00:00,
2013-05-26 09:06:00,56.8,47.1,30.27,North,360,0.0,0.0,70,0.00,,---,0.00,VWS V14.01,2013-05-26 13:06:00,
2013-05-26 09:11:00,56.9,47.6,30.27,North,360,0.0,0.0,71,0.00,,---,0.00,VWS V14.01,2013-05-26 13:11:00,
2013-05-26 09:16:00,57.2,47.1,30.28,North,360,0.0,0.0,69,0.00,,---,0.00,VWS V14.01,2013-05-26 13:16:00,
2013-05-26 09:21:00,57.5,47.4,30.28,North,360,0.0,0.0,69,0.00,,---,0.00,VWS V14.01,2013-05-26 13:21:00,
2013-05-26 09:26:00,57.8,45.7,30.27,North,360,0.0,0.0,64,0.00,,---,0.00,VWS V14.01,2013-05-26 13:26:00,
2013-05-26 09:31:00,58.1,45.6,30.28,North,360,0.0,3.0,63,0.00,,---,0.00,VWS V14.01,2013-05-26 13:31:00,
2013-05-26 09:36:00,58.2,45.3,30.28,North,360,1.0,3.0,62,0.00,,---,0.00,VWS V14.01,2013-05-26 13:36:00,
2013-05-26 09:41:00,58.2,44.8,30.28,North,360,1.0,3.0,61,0.00,,---,0.00,VWS V14.01,2013-05-26 13:41:00,
2013-05-26 09:46:00,58.2,46.1,30.28,North,360,0.0,4.0,64,0.00,,---,0.00,VWS V14.01,2013-05-26 13:46:00,
2013-05-26 09:51:00,58.3,46.6,30.28,North,360,2.0,4.0,65,0.00,,---,0.00,VWS V14.01,2013-05-26 13:51:00,
2013-05-26 09:56:00,58.5,47.6,30.28,North,360,0.0,4.0,67,0.00,,---,0.00,VWS V14.01,2013-05-26 13:56:00,
2013-05-26 10:01:00,58.5,47.6,30.28,North,360,1.0,4.0,67,0.00,,---,0.00,VWS V14.01,2013-05-26 14:01:00,
2013-05-26 10:06:00,58.5,48.0,30.28,North,360,1.0,4.0,68,0.00,,---,0.00,VWS V14.01,2013-05-26 14:06:00,
2013-05-26 10:11:00,58.6,48.1,30.28,North,360,4.0,5.0,68,0.00,,---,0.00,VWS V14.01,2013-05-26 14:11:00,
2013-05-26 10:16:00,58.5,48.0,30.28,North,360,1.0,5.0,68,0.00,,---,0.00,VWS V14.01,2013-05-26 14:16:00,
2013-05-26 10:21:00,58.5,48.0,30.28,North,360,2.0,5.0,68,0.00,,---,0.00,VWS V14.01,2013-05-26 14:21:00,
2013-05-26 10:26:00,58.5,48.4,30.28,North,360,0.0,5.0,69,0.00,,---,0.00,VWS V14.01,2013-05-26 14:26:00,
2013-05-26 10:31:00,58.6,48.9,30.27,North,360,0.0,5.0,70,0.00,,---,0.00,VWS V14.01,2013-05-26 14:31:00,
2013-05-26 10:36:00,58.7,49.3,30.27,North,360,0.0,5.0,71,0.00,,---,0.00,VWS V14.01,2013-05-26 14:36:00,
2013-05-26 10:41:00,59.0,49.2,30.27,North,360,0.0,5.0,70,0.00,,---,0.00,VWS V14.01,2013-05-26 14:41:00,
2013-05-26 10:46:00,59.3,49.1,30.28,North,360,0.0,5.0,69,0.00,,---,0.00,VWS V14.01,2013-05-26 14:46:00,
2013-05-26 10:51:00,59.6,49.8,30.28,North,360,4.0,5.0,70,0.00,,---,0.00,VWS V14.01,2013-05-26 14:51:00,
2013-05-26 10:56:00,59.7,48.7,30.27,North,360,0.0,5.0,67,0.00,,---,0.00,VWS V14.01,2013-05-26 14:56:00,
2013-05-26 11:01:00,60.1,48.7,30.27,North,360,0.0,5.0,66,0.00,,---,0.00,VWS V14.01,2013-05-26 15:01:00,
2013-05-26 11:07:00,60.6,48.4,30.26,North,360,0.0,2.0,64,0.00,,---,0.00,VWS V14.01,2013-05-26 15:07:00,
2013-05-26 11:12:00,60.9,46.9,30.26,North,360,1.0,5.0,60,0.00,,---,0.00,VWS V14.01,2013-05-26 15:12:00,
2013-05-26 11:17:00,61.1,46.2,30.26,North,360,3.0,5.0,58,0.00,,---,0.00,VWS V14.01,2013-05-26 15:17:00,
2013-05-26 11:22:00,61.2,47.2,30.26,North,360,2.0,9.0,60,0.00,,---,0.00,VWS V14.01,2013-05-26 15:22:00,
2013-05-26 11:27:00,61.3,46.9,30.26,North,360,3.0,9.0,59,0.00,,---,0.00,VWS V14.01,2013-05-26 15:27:00,
2013-05-26 11:32:00,61.5,47.1,30.26,North,360,3.0,9.0,59,0.00,,---,0.00,VWS V14.01,2013-05-26 15:32:00,
2013-05-26 11:37:00,61.6,46.7,30.26,North,360,7.0,10.0,58,0.00,,---,0.00,VWS V14.01,2013-05-26 15:37:00,
2013-05-26 11:42:00,62.2,45.4,30.26,North,360,7.0,10.0,54,0.00,,---,0.00,VWS V14.01,2013-05-26 15:42:00,
2013-05-26 11:47:00,62.1,44.8,30.26,North,360,4.0,10.0,53,0.00,,---,0.00,VWS V14.01,2013-05-26 15:47:00,
2013-05-26 11:52:00,62.3,44.5,30.26,North,360,7.0,10.0,52,0.00,,---,0.00,VWS V14.01,2013-05-26 15:52:00,
2013-05-26 11:57:00,62.5,43.6,30.26,North,360,3.0,10.0,50,0.00,,---,0.00,VWS V14.01,2013-05-26 15:57:00,
2013-05-26 12:02:00,62.7,44.8,30.26,North,360,2.0,10.0,52,0.00,,---,0.00,VWS V14.01,2013-05-26 16:02:00,
2013-05-26 12:07:00,63.3,45.9,30.25,North,360,7.0,7.0,53,0.00,,---,0.00,VWS V14.01,2013-05-26 16:07:00,
2013-05-26 12:12:00,63.6,45.7,30.25,North,360,7.0,9.0,52,0.00,,---,0.00,VWS V14.01,2013-05-26 16:12:00,
2013-05-26 12:17:00,64.0,43.9,30.25,North,360,5.0,9.0,48,0.00,,---,0.00,VWS V14.01,2013-05-26 16:17:00,
2013-05-26 12:23:00,64.5,43.8,30.25,North,360,4.0,9.0,47,0.00,,---,0.00,VWS V14.01,2013-05-26 16:23:00,
2013-05-26 12:28:00,64.4,42.6,30.25,North,360,5.0,12.0,45,0.00,,---,0.00,VWS V14.01,2013-05-26 16:28:00,
2013-05-26 12:33:00,64.5,43.3,30.25,North,360,6.0,12.0,46,0.00,,---,0.00,VWS V14.01,2013-05-26 16:33:00,
2013-05-26 12:38:00,64.8,43.0,30.25,North,360,6.0,12.0,45,0.00,,---,0.00,VWS V14.01,2013-05-26 16:38:00,
2013-05-26 12:43:00,64.7,42.9,30.24,North,360,4.0,12.0,45,0.00,,---,0.00,VWS V14.01,2013-05-26 16:43:00,
2013-05-26 12:48:00,64.7,44.0,30.24,North,360,5.0,12.0,47,0.00,,---,0.00,VWS V14.01,2013-05-26 16:48:00,
2013-05-26 12:53:00,65.0,43.7,30.24,North,360,5.0,12.0,46,0.00,,---,0.00,VWS V14.01,2013-05-26 16:53:00,
2013-05-26 12:58:00,65.3,44.0,30.24,North,360,6.0,12.0,46,0.00,,---,0.00,VWS V14.01,2013-05-26 16:58:00,
2013-05-26 13:03:00,65.2,43.9,30.24,North,360,10.0,10.0,46,0.00,,---,0.00,VWS V14.01,2013-05-26 17:03:00,
2013-05-26 13:08:00,65.4,43.5,30.24,North,360,4.0,10.0,45,0.00,,---,0.00,VWS V14.01,2013-05-26 17:08:00,
2013-05-26 13:13:00,66.3,43.2,30.24,North,360,9.0,13.0,43,0.00,,---,0.00,VWS V14.01,2013-05-26 17:13:00,
2013-05-26 13:18:00,66.4,42.6,30.24,North,360,14.0,15.0,42,0.00,,---,0.00,VWS V14.01,2013-05-26 17:18:00,
2013-05-26 13:24:00,66.5,43.3,30.24,North,360,1.0,16.0,43,0.00,,---,0.00,VWS V14.01,2013-05-26 17:24:00,
2013-05-26 13:29:00,67.2,44.6,30.24,North,360,7.0,16.0,44,0.00,,---,0.00,VWS V14.01,2013-05-26 17:29:00,
2013-05-26 13:34:00,67.4,45.3,30.23,North,360,5.0,16.0,45,0.00,,---,0.00,VWS V14.01,2013-05-26 17:34:00,
2013-05-26 13:39:00,67.5,45.4,30.22,North,360,2.0,16.0,45,0.00,,---,0.00,VWS V14.01,2013-05-26 17:39:00,
2013-05-26 13:44:00,67.8,48.5,30.22,North,360,1.0,16.0,50,0.00,,---,0.00,VWS V14.01,2013-05-26 17:44:00,
2013-05-26 13:49:00,68.2,47.8,30.22,North,360,3.0,16.0,48,0.00,,---,0.00,VWS V14.01,2013-05-26 17:49:00,
2013-05-26 13:54:00,68.1,47.7,30.22,North,360,1.0,16.0,48,0.00,,---,0.00,VWS V14.01,2013-05-26 17:54:00,
2013-05-26 13:59:00,68.2,47.8,30.22,North,360,1.0,16.0,48,0.00,,---,0.00,VWS V14.01,2013-05-26 17:59:00,
2013-05-26 14:04:00,68.9,48.4,30.21,North,360,9.0,13.0,48,0.00,,---,0.00,VWS V14.01,2013-05-26 18:04:00,
2013-05-26 14:09:00,68.1,47.1,30.20,North,360,5.0,13.0,47,0.00,,---,0.00,VWS V14.01,2013-05-26 18:09:00,
2013-05-26 14:14:00,68.1,47.1,30.20,North,360,0.0,13.0,47,0.00,,---,0.00,VWS V14.01,2013-05-26 18:14:00,
2013-05-26 14:19:00,69.0,48.5,30.20,North,360,7.0,13.0,48,0.00,,---,0.00,VWS V14.01,2013-05-26 18:19:00,
2013-05-26 14:24:00,69.0,46.8,30.20,North,360,10.0,15.0,45,0.00,,---,0.00,VWS V14.01,2013-05-26 18:24:00,
2013-05-26 14:29:00,68.6,46.4,30.20,North,360,13.0,17.0,45,0.00,,---,0.00,VWS V14.01,2013-05-26 18:29:00,
2013-05-26 14:35:00,68.5,46.9,30.20,North,360,2.0,17.0,46,0.00,,---,0.00,VWS V14.01,2013-05-26 18:35:00,
2013-05-26 14:40:00,68.8,47.2,30.20,North,360,4.0,17.0,46,0.00,,---,0.00,VWS V14.01,2013-05-26 18:40:00,
2013-05-26 14:45:00,69.1,48.0,30.20,North,360,7.0,17.0,47,0.00,,---,0.00,VWS V14.01,2013-05-26 18:45:00,
2013-05-26 14:50:00,69.4,47.7,30.20,North,360,5.0,17.0,46,0.00,,---,0.00,VWS V14.01,2013-05-26 18:50:00,
2013-05-26 14:55:00,69.4,47.7,30.20,North,360,5.0,17.0,46,0.00,,---,0.00,VWS V14.01,2013-05-26 18:55:00,
2013-05-26 15:00:00,69.4,47.7,30.19,North,360,1.0,17.0,46,0.00,,---,0.00,VWS V14.01,2013-05-26 19:00:00,
2013-05-26 15:05:00,69.8,48.1,30.19,North,360,8.0,8.0,46,0.00,,---,0.00,VWS V14.01,2013-05-26 19:05:00,
2013-05-26 15:10:00,70.4,49.2,30.20,North,360,5.0,11.0,47,0.00,,---,0.00,VWS V14.01,2013-05-26 19:10:00,
2013-05-26 15:15:00,70.7,48.3,30.20,North,360,11.0,12.0,45,0.00,,---,0.00,VWS V14.01,2013-05-26 19:15:00,
2013-05-26 15:20:00,70.7,47.1,30.19,North,360,8.0,12.0,43,0.00,,---,0.00,VWS V14.01,2013-05-26 19:20:00,
2013-05-26 15:25:00,70.2,47.3,30.19,North,360,10.0,14.0,44,0.00,,---,0.00,VWS V14.01,2013-05-26 19:25:00,
2013-05-26 15:30:00,70.5,47.0,30.19,North,360,8.0,14.0,43,0.00,,---,0.00,VWS V14.01,2013-05-26 19:30:00,
2013-05-26 15:36:00,71.0,48.0,30.19,North,360,4.0,14.0,44,0.00,,---,0.00,VWS V14.01,2013-05-26 19:36:00,
2013-05-26 15:41:00,71.4,47.8,30.19,North,360,11.0,14.0,43,0.00,,---,0.00,VWS V14.01,2013-05-26 19:41:00,
2013-05-26 15:46:00,71.5,47.8,30.19,North,360,7.0,14.0,43,0.00,,---,0.00,VWS V14.01,2013-05-26 19:46:00,
2013-05-26 15:51:00,71.3,47.7,30.19,North,360,4.0,14.0,43,0.00,,---,0.00,VWS V14.01,2013-05-26 19:51:00,
2013-05-26 15:56:00,71.4,47.8,30.19,North,360,7.0,15.0,43,0.00,,---,0.00,VWS V14.01,2013-05-26 19:56:00,
2013-05-26 16:01:00,71.1,49.3,30.18,North,360,7.0,15.0,46,0.00,,---,0.00,VWS V14.01,2013-05-26 20:01:00,
2013-05-26 16:06:00,71.5,48.5,30.18,North,360,4.0,7.0,44,0.00,,---,0.00,VWS V14.01,2013-05-26 20:06:00,
2013-05-26 16:11:00,71.8,48.7,30.18,North,360,1.0,7.0,44,0.00,,---,0.00,VWS V14.01,2013-05-26 20:11:00,
2013-05-26 16:16:00,72.6,49.5,30.18,North,360,6.0,9.0,44,0.00,,---,0.00,VWS V14.01,2013-05-26 20:16:00,
2013-05-26 16:21:00,72.3,48.6,30.17,North,360,10.0,12.0,43,0.00,,---,0.00,VWS V14.01,2013-05-26 20:21:00,
2013-05-26 16:26:00,71.9,48.8,30.18,North,360,1.0,13.0,44,0.00,,---,0.00,VWS V14.01,2013-05-26 20:26:00,
2013-05-26 16:31:00,71.8,48.7,30.17,North,360,4.0,13.0,44,0.00,,---,0.00,VWS V14.01,2013-05-26 20:31:00,
2013-05-26 16:36:00,72.3,49.8,30.18,North,360,4.0,13.0,45,0.00,,---,0.00,VWS V14.01,2013-05-26 20:36:00,
2013-05-26 16:42:00,72.1,48.4,30.17,North,360,6.0,13.0,43,0.00,,---,0.00,VWS V14.01,2013-05-26 20:42:00,
2013-05-26 16:47:00,72.0,49.5,30.17,North,360,7.0,13.0,45,0.00,,---,0.00,VWS V14.01,2013-05-26 20:47:00,
2013-05-26 16:52:00,72.3,49.2,30.17,North,360,2.0,13.0,44,0.00,,---,0.00,VWS V14.01,2013-05-26 20:52:00,
2013-05-26 16:57:00,72.9,49.7,30.17,North,360,4.0,13.0,44,0.00,,---,0.00,VWS V14.01,2013-05-26 20:57:00,
2013-05-26 17:02:00,73.1,49.3,30.17,North,360,9.0,13.0,43,0.00,,---,0.00,VWS V14.01,2013-05-26 21:02:00,
2013-05-26 17:07:00,72.6,50.1,30.17,North,360,4.0,7.0,45,0.00,,---,0.00,VWS V14.01,2013-05-26 21:07:00,
2013-05-26 17:12:00,72.3,49.2,30.17,North,360,5.0,10.0,44,0.00,,---,0.00,VWS V14.01,2013-05-26 21:12:00,
2013-05-26 17:17:00,72.1,49.6,30.16,North,360,3.0,10.0,45,0.00,,---,0.00,VWS V14.01,2013-05-26 21:17:00,
2013-05-26 17:22:00,72.2,50.3,30.16,North,360,6.0,11.0,46,0.00,,---,0.00,VWS V14.01,2013-05-26 21:22:00,
2013-05-26 17:27:00,71.9,50.6,30.17,North,360,7.0,13.0,47,0.00,,---,0.00,VWS V14.01,2013-05-26 21:27:00,
2013-05-26 17:32:00,72.5,50.6,30.16,North,360,2.0,13.0,46,0.00,,---,0.00,VWS V14.01,2013-05-26 21:32:00,
2013-05-26 17:38:00,72.3,49.8,30.16,North,360,5.0,13.0,45,0.00,,---,0.00,VWS V14.01,2013-05-26 21:38:00,
2013-05-26 17:43:00,72.4,49.9,30.16,North,360,4.0,13.0,45,0.00,,---,0.00,VWS V14.01,2013-05-26 21:43:00,
2013-05-26 17:48:00,72.9,50.3,30.16,North,360,4.0,13.0,45,0.00,,---,0.00,VWS V14.01,2013-05-26 21:48:00,
2013-05-26 17:53:00,72.7,50.2,30.16,North,360,5.0,13.0,45,0.00,,---,0.00,VWS V14.01,2013-05-26 21:53:00,
2013-05-26 17:58:00,72.4,49.9,30.17,North,360,4.0,13.0,45,0.00,,---,0.00,VWS V14.01,2013-05-26 21:58:00,
2013-05-26 18:03:00,72.0,50.1,30.16,North,360,7.0,7.0,46,0.00,,---,0.00,VWS V14.01,2013-05-26 22:03:00,
2013-05-26 18:08:00,72.0,50.7,30.17,North,360,5.0,10.0,47,0.00,,---,0.00,VWS V14.01,2013-05-26 22:08:00,
2013-05-26 18:13:00,72.4,50.5,30.17,North,360,8.0,11.0,46,0.00,,---,0.00,VWS V14.01,2013-05-26 22:13:00,
2013-05-26 18:18:00,71.7,49.8,30.17,North,360,5.0,11.0,46,0.00,,---,0.00,VWS V14.01,2013-05-26 22:18:00,
2013-05-26 18:23:00,71.6,50.9,30.17,North,360,3.0,11.0,48,0.00,,---,0.00,VWS V14.01,2013-05-26 22:23:00,
2013-05-26 18:28:00,71.8,50.5,30.16,North,360,5.0,11.0,47,0.00,,---,0.00,VWS V14.01,2013-05-26 22:28:00,
2013-05-26 18:33:00,71.6,50.9,30.16,North,360,4.0,11.0,48,0.00,,---,0.00,VWS V14.01,2013-05-26 22:33:00,
2013-05-26 18:39:00,71.4,51.3,30.16,North,360,3.0,11.0,49,0.00,,---,0.00,VWS V14.01,2013-05-26 22:39:00,
2013-05-26 18:44:00,71.4,51.3,30.17,North,360,4.0,11.0,49,0.00,,---,0.00,VWS V14.01,2013-05-26 22:44:00,
2013-05-26 18:49:00,71.2,51.1,30.16,North,360,2.0,11.0,49,0.00,,---,0.00,VWS V14.01,2013-05-26 22:49:00,
2013-05-26 18:54:00,71.3,51.7,30.17,North,360,2.0,11.0,50,0.00,,---,0.00,VWS V14.01,2013-05-26 22:54:00,
2013-05-26 18:59:00,71.2,51.1,30.17,North,360,3.0,11.0,49,0.00,,---,0.00,VWS V14.01,2013-05-26 22:59:00,
2013-05-26 19:04:00,70.9,50.8,30.17,North,360,0.0,4.0,49,0.00,,---,0.00,VWS V14.01,2013-05-26 23:04:00,
2013-05-26 19:09:00,70.8,51.8,30.17,North,360,5.0,6.0,51,0.00,,---,0.00,VWS V14.01,2013-05-26 23:09:00,
2013-05-26 19:14:00,70.5,51.5,30.17,North,360,5.0,6.0,51,0.00,,---,0.00,VWS V14.01,2013-05-26 23:14:00,
2013-05-26 19:19:00,70.3,51.9,30.17,North,360,3.0,6.0,52,0.00,,---,0.00,VWS V14.01,2013-05-26 23:19:00,
2013-05-26 19:24:00,70.2,51.8,30.17,North,360,2.0,6.0,52,0.00,,---,0.00,VWS V14.01,2013-05-26 23:24:00,
2013-05-26 19:29:00,70.1,51.7,30.17,North,360,5.0,6.0,52,0.00,,---,0.00,VWS V14.01,2013-05-26 23:29:00,
2013-05-26 19:34:00,69.9,52.0,30.17,North,360,3.0,6.0,53,0.00,,---,0.00,VWS V14.01,2013-05-26 23:34:00,
2013-05-26 19:39:00,69.7,52.3,30.17,North,360,3.0,6.0,54,0.00,,---,0.00,VWS V14.01,2013-05-26 23:39:00,
2013-05-26 19:45:00,69.6,52.2,30.17,North,360,3.0,6.0,54,0.00,,---,0.00,VWS V14.01,2013-05-26 23:45:00,
2013-05-26 19:50:00,69.5,51.6,30.17,North,360,3.0,6.0,53,0.00,,---,0.00,VWS V14.01,2013-05-26 23:50:00,
2013-05-26 19:55:00,69.3,52.5,30.17,North,360,2.0,6.0,55,0.00,,---,0.00,VWS V14.01,2013-05-26 23:55:00,
2013-05-26 20:00:00,69.2,51.9,30.17,North,360,2.0,6.0,54,0.00,,---,0.00,VWS V14.01,2013-05-27 00:00:00,
2013-05-26 20:05:00,69.1,51.8,30.17,North,360,1.0,3.0,54,0.00,,---,0.00,VWS V14.01,2013-05-27 00:05:00,
2013-05-26 20:10:00,69.0,52.7,30.17,North,360,1.0,3.0,56,0.00,,---,0.00,VWS V14.01,2013-05-27 00:10:00,
2013-05-26 20:15:00,68.9,52.6,30.17,North,360,2.0,3.0,56,0.00,,---,0.00,VWS V14.01,2013-05-27 00:15:00,
2013-05-26 20:20:00,68.6,51.8,30.18,North,360,5.0,5.0,55,0.00,,---,0.00,VWS V14.01,2013-05-27 00:20:00,
2013-05-26 20:25:00,68.3,51.5,30.18,North,360,4.0,5.0,55,0.00,,---,0.00,VWS V14.01,2013-05-27 00:25:00,
2013-05-26 20:30:00,68.1,51.3,30.18,North,360,5.0,5.0,55,0.00,,---,0.00,VWS V14.01,2013-05-27 00:30:00,
2013-05-26 20:35:00,68.0,51.2,30.18,North,360,4.0,5.0,55,0.00,,---,0.00,VWS V14.01,2013-05-27 00:35:00,
2013-05-26 20:40:00,67.9,51.2,30.18,North,360,5.0,5.0,55,0.00,,---,0.00,VWS V14.01,2013-05-27 00:40:00,
2013-05-26 20:45:00,67.7,51.0,30.18,North,360,3.0,5.0,55,0.00,,---,0.00,VWS V14.01,2013-05-27 00:45:00,
2013-05-26 20:50:00,67.6,51.4,30.18,North,360,4.0,5.0,56,0.00,,---,0.00,VWS V14.01,2013-05-27 00:50:00,
2013-05-26 20:56:00,67.5,52.7,30.18,North,360,1.0,5.0,59,0.00,,---,0.00,VWS V14.01,2013-05-27 00:56:00,
2013-05-26 21:01:00,67.0,53.1,30.18,North,360,2.0,5.0,61,0.00,,---,0.00,VWS V14.01,2013-05-27 01:01:00,
2013-05-26 21:06:00,66.5,53.5,30.18,North,360,3.0,3.0,63,0.00,,---,0.00,VWS V14.01,2013-05-27 01:06:00,
2013-05-26 21:11:00,65.6,54.0,30.19,North,360,0.0,3.0,66,0.00,,---,0.00,VWS V14.01,2013-05-27 01:11:00,
2013-05-26 21:16:00,65.0,53.4,30.19,North,360,0.0,3.0,66,0.00,,---,0.00,VWS V14.01,2013-05-27 01:16:00,
2013-05-26 21:21:00,64.4,53.6,30.19,North,360,0.0,3.0,68,0.00,,---,0.00,VWS V14.01,2013-05-27 01:21:00,
2013-05-26 21:26:00,63.8,53.0,30.19,North,360,0.0,3.0,68,0.00,,---,0.00,VWS V14.01,2013-05-27 01:26:00,
2013-05-26 21:31:00,63.3,53.4,30.19,North,360,0.0,3.0,70,0.00,,---,0.00,VWS V14.01,2013-05-27 01:31:00,
2013-05-26 21:36:00,63.1,53.6,30.19,North,360,0.0,3.0,71,0.00,,---,0.00,VWS V14.01,2013-05-27 01:36:00,
2013-05-26 21:41:00,62.9,53.4,30.19,North,360,0.0,3.0,71,0.00,,---,0.00,VWS V14.01,2013-05-27 01:41:00,
2013-05-26 21:46:00,62.8,53.7,30.19,North,360,0.0,3.0,72,0.00,,---,0.00,VWS V14.01,2013-05-27 01:46:00,
2013-05-26 21:51:00,62.7,53.2,30.19,North,360,0.0,3.0,71,0.00,,---,0.00,VWS V14.01,2013-05-27 01:51:00,
2013-05-26 21:57:00,62.6,53.1,30.20,North,360,0.0,3.0,71,0.00,,---,0.00,VWS V14.01,2013-05-27 01:57:00,
2013-05-26 22:02:00,62.6,53.5,30.20,North,360,0.0,3.0,72,0.00,,---,0.00,VWS V14.01,2013-05-27 02:02:00,
2013-05-26 22:07:00,62.6,53.5,30.20,North,360,0.0,0.0,72,0.00,,---,0.00,VWS V14.01,2013-05-27 02:07:00,
2013-05-26 22:12:00,62.6,53.8,30.20,North,360,0.0,0.0,73,0.00,,---,0.00,VWS V14.01,2013-05-27 02:12:00,
2013-05-26 22:17:00,62.4,53.3,30.20,North,360,0.0,0.0,72,0.00,,---,0.00,VWS V14.01,2013-05-27 02:17:00,
2013-05-26 22:22:00,62.2,52.7,30.20,North,360,0.0,0.0,71,0.00,,---,0.00,VWS V14.01,2013-05-27 02:22:00,
2013-05-26 22:27:00,62.1,52.6,30.20,North,360,0.0,0.0,71,0.00,,---,0.00,VWS V14.01,2013-05-27 02:27:00,
2013-05-26 22:32:00,62.0,52.9,30.20,North,360,0.0,0.0,72,0.00,,---,0.00,VWS V14.01,2013-05-27 02:32:00,
2013-05-26 22:37:00,61.8,53.1,30.20,North,360,0.0,0.0,73,0.00,,---,0.00,VWS V14.01,2013-05-27 02:37:00,
2013-05-26 22:42:00,61.6,52.9,30.21,North,360,0.0,0.0,73,0.00,,---,0.00,VWS V14.01,2013-05-27 02:42:00,
2013-05-26 22:47:00,61.3,52.6,30.20,North,360,0.0,0.0,73,0.00,,---,0.00,VWS V14.01,2013-05-27 02:47:00,
2013-05-26 22:52:00,61.1,52.8,30.20,North,360,0.0,0.0,74,0.00,,---,0.00,VWS V14.01,2013-05-27 02:52:00,
2013-05-26 22:57:00,60.8,52.8,30.20,North,360,0.0,0.0,75,0.00,,---,0.00,VWS V14.01,2013-05-27 02:57:00,
2013-05-26 23:02:00,60.6,52.6,30.20,North,360,0.0,0.0,75,0.00,,---,0.00,VWS V14.01,2013-05-27 03:02:00,
2013-05-26 23:07:00,60.6,52.6,30.20,North,360,0.0,0.0,75,0.00,,---,0.00,VWS V14.01,2013-05-27 03:07:00,
2013-05-26 23:12:00,60.6,52.6,30.20,North,360,0.0,0.0,75,0.00,,---,0.00,VWS V14.01,2013-05-27 03:12:00,
2013-05-26 23:18:00,60.6,52.6,30.20,North,360,0.0,0.0,75,0.00,,---,0.00,VWS V14.01,2013-05-27 03:18:00,
2013-05-26 23:23:00,60.6,52.3,30.20,North,360,0.0,0.0,74,0.00,,---,0.00,VWS V14.01,2013-05-27 03:23:00,
2013-05-26 23:28:00,60.7,52.7,30.20,North,360,0.0,0.0,75,0.00,,---,0.00,VWS V14.01,2013-05-27 03:28:00,
2013-05-26 23:33:00,60.8,52.1,30.20,North,360,0.0,0.0,73,0.00,,---,0.00,VWS V14.01,2013-05-27 03:33:00,
2013-05-26 23:38:00,60.8,52.8,30.20,North,360,0.0,3.0,75,0.00,,---,0.00,VWS V14.01,2013-05-27 03:38:00,
2013-05-26 23:43:00,60.2,52.3,30.20,North,360,0.0,3.0,75,0.00,,---,0.00,VWS V14.01,2013-05-27 03:43:00,
2013-05-26 23:48:00,59.9,52.3,30.20,North,360,0.0,3.0,76,0.00,,---,0.00,VWS V14.01,2013-05-27 03:48:00,
2013-05-26 23:53:00,59.6,52.4,30.21,North,360,0.0,3.0,77,0.00,,---,0.00,VWS V14.01,2013-05-27 03:53:00,
2013-05-26 23:58:00,59.4,52.5,30.20,North,360,0.0,3.0,78,0.00,,---,0.00,VWS V14.01,2013-05-27 03:58:00,